EDT,Max TemperatureF,Mean TemperatureF,Min TemperatureF,Max Dew PointF,MeanDew PointF,Min DewpointF,Max Humidity, Mean Humidity, Min Humidity, Max Sea Level PressureIn, Mean Sea Level PressureIn, Min Sea Level PressureIn, Max VisibilityMiles, Mean VisibilityMiles, Min VisibilityMiles, Max Wind SpeedMPH, Mean Wind SpeedMPH, Max Gust SpeedMPH,PrecipitationIn, CloudCover, Events, WindDirDegrees
2014-4-1,82,60,38,43,35,27,90,49,15,30.18,30.12,30.04,10,10,10,10,2,16,0.00,1,,207
2014-4-2,84,60,37,44,37,24,99,47,16,30.15,30.10,30.04,10,10,7,12,2,16,0.00,0,,195
2014-4-3,82,66,49,55,46,32,97,57,20,30.16,30.04,29.93,10,10,4,14,3,20,0.02,1,Rain,172
2014-4-4,77,62,47,56,51,40,100,64,36,29.95,29.88,29.80,10,10,3,12,4,22,0.00,1,,252
2014-4-5,70,57,44,46,33,25,73,39,19,30.11,30.01,29.90,10,10,10,15,6,21,0.00,0,,320
2014-4-6,59,49,39,43,34,29,82,54,34,30.25,30.16,30.10,10,10,10,8,3,,0.00,3,Rain,50
2014-4-7,51,48,45,50,47,42,100,98,71,30.12,29.92,29.71,10,6,0,7,1,,1.00,8,Rain,2
2014-4-8,59,53,47,52,42,34,100,69,40,29.80,29.72,29.65,10,8,0,12,4,18,0.00,6,Fog-Rain,316
2014-4-9,65,52,38,43,36,24,98,60,22,30.17,29.97,29.80,10,10,10,14,3,23,0.00,3,,295
2014-4-10,73,52,30,38,32,28,100,56,20,30.32,30.23,30.17,10,10,10,12,2,16,0.00,0,,206
2014-4-11,77,58,38,45,38,31,96,54,18,30.25,30.18,30.09,10,10,10,13,3,20,0.00,0,,224
2014-4-12,80,60,41,49,43,40,97,57,24,30.28,30.20,30.15,10,10,10,9,2,,0.00,0,,127
2014-4-13,81,63,45,54,49,45,99,61,32,30.23,30.16,30.10,10,10,7,15,3,24,0.00,2,,178
2014-4-14,70,66,62,64,58,53,100,80,58,30.10,30.00,29.85,10,9,2,10,5,18,0.25,7,Rain,174
2014-4-15,64,47,29,63,47,23,100,80,51,30.07,29.82,29.69,10,9,2,20,6,30,0.38,5,Rain,266
2014-4-16,57,42,26,29,21,12,93,48,17,30.46,30.33,30.08,10,10,10,10,4,,0.00,0,,57
2014-4-17,61,45,29,35,28,22,98,59,23,30.58,30.50,30.44,10,10,10,8,3,,0.00,0,,38
2014-4-18,54,45,36,48,39,31,99,76,58,30.48,30.39,30.26,10,9,5,7,3,,0.01,3,Rain,12
2014-4-19,57,52,46,52,48,45,100,91,71,30.29,30.23,30.17,10,8,3,9,2,16,0.01,7,Rain,6
2014-4-20,71,57,41,51,39,26,100,62,19,30.35,30.28,30.23,10,9,0,10,4,17,0.00,0,Fog,16
2014-4-21,78,56,34,54,40,34,100,63,25,30.26,30.13,29.98,10,9,5,9,3,,0.00,0,,85
2014-4-22,76,60,45,59,52,45,100,75,38,29.97,29.86,29.78,10,10,5,15,2,22,0.03,2,Rain,236
2014-4-23,73,58,44,55,27,12,98,36,10,30.04,29.92,29.82,10,10,5,18,5,25,0.00,0,,308
2014-4-24,74,54,33,46,35,31,97,55,22,30.20,30.08,30.00,10,10,10,10,2,,0.00,0,,164
2014-4-25,72,59,46,61,50,42,94,70,42,30.01,29.91,29.80,10,10,3,18,3,26,0.05,5,Rain,269
2014-4-26,82,62,43,50,41,32,98,51,17,30.09,30.02,29.97,10,10,10,13,3,18,0.00,0,,229
2014-4-27,85,64,43,55,45,36,99,58,18,30.07,30.01,29.95,10,10,7,12,2,17,0.00,0,,189
2014-4-28,75,66,57,62,57,51,93,76,62,30.02,29.98,29.90,10,10,10,9,2,,0.00,4,Rain,52
2014-4-29,57,55,53,55,54,51,100,98,81,30.08,29.98,29.91,10,4,1,10,4,18,0.43,8,Rain,26
2014-4-30,70,61,52,63,57,52,100,91,65,30.08,29.98,29.91,10,5,0,9,3,22,0.00,7,Fog,144